Weather History for Kaiser, MO

Change the Weather History Date:

Thursday, April 4, 2013

  Actual Average Record
Temperature  
Mean Temperature 42 °F -  
Max Temperature 57 °F 62 °F 78 °F (2003)
Min Temperature 28 °F 41 °F 28 °F (2002)
Degree Days  
Heating Degree Days 22    
Moisture  
Dew Point 24 °F    
Average Humidity 46    
Maximum Humidity 80    
Minimum Humidity 26    
Precipitation  
Precipitation 0.00 in - - ()
Sea Level Pressure  
Sea Level Pressure 30.15 in    
Wind  
Wind Speed 4 mph (NNE)    
Max Wind Speed 12 mph    
Max Gust Speed 21 mph    
Visibility 10 miles    
Events      
Averages and records for this station are not official NWS values.
T = Trace of Precipitation, MM = Missing Value Source: NWS Daily Summary

Daily Weather History Graph

Daily Weather History Graph

Search for Another Location

Airport:

Trip Planner

Search our weather history database for the weather conditions in past years. The results will help you decide how hot, cold, wet, or windy it might be!

Date:

Astronomy

Apr. 04, 2013 Rise Set
Actual Time 6:50 AM CDT 7:36 PM CDT
Civil Twilight 6:23 AM CDT 8:03 PM CDT
Nautical Twilight 5:52 AM CDT 8:34 PM CDT
Astronomical Twilight 5:19 AM CDT 9:07 PM CDT
Moon 3:12 AM CDT (4/4) 2:00 PM CDT (4/4)
Length of Visible Light 13h 39m
Length of Day
12h 45m
Waning Crescent, 33% of the Moon is Illuminated
Apr 4
Waning Crescent
Apr 10
New
Apr 18
First Quarter
Apr 25
Full
May 2
Last Quarter

Hourly Weather History & Observations

Time (CDT) Temp. Windchill Dew Point Humidity Pressure Visibility Wind Dir Wind Speed Gust Speed Precip Events Conditions
12:15 AM 39.2 °F 35.9 °F 19.4 °F 45% 30.23 in 10.0 mi East 4.6 mph - N/A   Clear
12:35 AM 39.2 °F 35.9 °F 21.2 °F 49% 30.23 in 10.0 mi ENE 4.6 mph - N/A   Clear
12:55 AM 37.4 °F 33.8 °F 21.2 °F 52% 30.24 in 10.0 mi East 4.6 mph - N/A   Clear
1:15 AM 37.4 °F 33.8 °F 21.2 °F 52% 30.24 in 10.0 mi ENE 4.6 mph - N/A   Clear
1:35 AM 37.4 °F 34.9 °F 21.2 °F 52% 30.23 in 10.0 mi ENE 3.5 mph - N/A   Clear
1:55 AM 35.6 °F 31.7 °F 21.2 °F 56% 30.23 in 10.0 mi NE 4.6 mph - N/A   Clear
2:15 AM 37.4 °F 33.8 °F 23.0 °F 56% 30.22 in 10.0 mi ENE 4.6 mph - N/A   Clear
2:35 AM 37.4 °F 32.8 °F 23.0 °F 56% 30.21 in 10.0 mi NE 5.8 mph - N/A   Clear
2:55 AM 35.6 °F 30.7 °F 23.0 °F 60% 30.20 in 10.0 mi NE 5.8 mph - N/A   Clear
3:15 AM 35.6 °F 31.7 °F 23.0 °F 60% 30.19 in 10.0 mi ENE 4.6 mph - N/A   Clear
3:35 AM 35.6 °F 31.7 °F 21.2 °F 56% 30.19 in 10.0 mi NE 4.6 mph - N/A   Clear
3:55 AM 33.8 °F 29.6 °F 21.2 °F 60% 30.19 in 10.0 mi NE 4.6 mph - N/A   Clear
4:15 AM 35.6 °F - 21.2 °F 56% 30.19 in 10.0 mi Calm Calm - N/A   Clear
4:35 AM 32.0 °F - 21.2 °F 64% 30.19 in 10.0 mi Calm Calm - N/A   Clear
4:55 AM 33.8 °F 30.8 °F 21.2 °F 60% 30.19 in 10.0 mi ENE 3.5 mph - N/A   Clear
5:55 AM 28.4 °F - 21.2 °F 74% 30.19 in 10.0 mi Calm Calm - N/A   Scattered Clouds
6:15 AM 30.2 °F - 21.2 °F 69% 30.19 in 10.0 mi Calm Calm - N/A   Mostly Cloudy
6:35 AM 30.2 °F - 24.8 °F 80% 30.19 in 10.0 mi Calm Calm - N/A   Mostly Cloudy
6:55 AM 30.2 °F - 21.2 °F 69% 30.19 in 10.0 mi Calm Calm - N/A   Scattered Clouds
7:15 AM 30.2 °F - 24.8 °F 80% 30.20 in 10.0 mi Calm Calm - N/A   Mostly Cloudy
7:35 AM 32.0 °F - 24.8 °F 75% 30.20 in 10.0 mi Calm Calm - N/A   Mostly Cloudy
7:55 AM 35.6 °F - 26.6 °F 70% 30.20 in 10.0 mi Calm Calm - N/A   Mostly Cloudy
8:15 AM 37.4 °F 32.8 °F 24.8 °F 60% 30.20 in 10.0 mi NE 5.8 mph - N/A   Scattered Clouds
8:35 AM 37.4 °F 33.8 °F 24.8 °F 60% 30.19 in 10.0 mi ENE 4.6 mph - N/A   Clear
8:55 AM 37.4 °F 32.8 °F 24.8 °F 60% 30.18 in 10.0 mi ENE 5.8 mph - N/A   Clear
9:15 AM 39.2 °F 35.9 °F 26.6 °F 61% 30.17 in 10.0 mi ENE 4.6 mph - N/A   Scattered Clouds
9:35 AM 42.8 °F 40.1 °F 26.6 °F 53% 30.17 in 10.0 mi ENE 4.6 mph - N/A   Scattered Clouds
9:55 AM 44.6 °F 41.4 °F 26.6 °F 49% 30.17 in 10.0 mi NE 5.8 mph - N/A   Mostly Cloudy
10:15 AM 46.4 °F 43.5 °F 21.2 °F 37% 30.17 in 10.0 mi East 5.8 mph - N/A   Partly Cloudy
10:35 AM 48.2 °F - 23.0 °F 37% 30.17 in 10.0 mi ENE 5.8 mph - N/A   Clear
10:55 AM 48.2 °F - 21.2 °F 34% 30.16 in 10.0 mi Calm Calm - N/A   Clear
11:35 AM 51.8 °F - 19.4 °F 28% 30.15 in 10.0 mi North 10.4 mph - N/A   Clear
11:55 AM 51.8 °F - 21.2 °F 30% 30.15 in 10.0 mi NNE 11.5 mph 20.7 mph N/A   Clear
12:15 PM 51.8 °F - 21.2 °F 30% 30.14 in 10.0 mi North 8.1 mph - N/A   Scattered Clouds
12:35 PM 53.6 °F - 21.2 °F 28% 30.14 in 10.0 mi North 10.4 mph - N/A   Mostly Cloudy
12:55 PM 53.6 °F - 23.0 °F 30% 30.13 in 10.0 mi NE 6.9 mph - N/A   Partly Cloudy
1:15 PM 55.4 °F - 24.8 °F 31% 30.13 in 10.0 mi NE 9.2 mph - N/A   Partly Cloudy
1:35 PM 55.4 °F - 23.0 °F 29% 30.13 in 10.0 mi North 6.9 mph - N/A   Scattered Clouds
1:55 PM 55.4 °F - 23.0 °F 29% 30.12 in 10.0 mi NE 5.8 mph - N/A   Mostly Cloudy
2:15 PM 55.4 °F - 24.8 °F 31% 30.11 in 10.0 mi NNE 6.9 mph - N/A   Overcast
2:35 PM 55.4 °F - 21.2 °F 26% 30.11 in 10.0 mi North 5.8 mph - N/A   Mostly Cloudy
2:55 PM 55.4 °F - 23.0 °F 29% 30.10 in 10.0 mi Calm Calm - N/A   Mostly Cloudy
3:15 PM 55.4 °F - 24.8 °F 31% 30.09 in 10.0 mi East 5.8 mph - N/A   Partly Cloudy
3:35 PM 55.4 °F - 24.8 °F 31% 30.09 in 10.0 mi Calm Calm - N/A   Mostly Cloudy
3:55 PM 55.4 °F - 23.0 °F 29% 30.09 in 10.0 mi NNW 4.6 mph - N/A   Overcast
4:15 PM 55.4 °F - 24.8 °F 31% 30.08 in 10.0 mi SE 3.5 mph - N/A   Overcast
4:35 PM 55.4 °F - 21.2 °F 26% 30.08 in 10.0 mi NE 4.6 mph - N/A   Mostly Cloudy
4:55 PM 57.2 °F - 24.8 °F 29% 30.08 in 10.0 mi West 5.8 mph - N/A   Mostly Cloudy
5:15 PM 57.2 °F - 24.8 °F 29% 30.07 in 10.0 mi North 6.9 mph - N/A   Clear
5:35 PM 57.2 °F - 26.6 °F 31% 30.07 in 10.0 mi NNW 6.9 mph - N/A   Clear
5:55 PM 57.2 °F - 26.6 °F 31% 30.08 in 10.0 mi North 6.9 mph - N/A   Clear
6:15 PM 57.2 °F - 24.8 °F 29% 30.08 in 10.0 mi Calm Calm - N/A   Clear
6:35 PM 55.4 °F - 24.8 °F 31% 30.08 in 10.0 mi North 6.9 mph - N/A   Clear
6:55 PM 55.4 °F - 24.8 °F 31% 30.08 in 10.0 mi NNW 6.9 mph - N/A   Clear
7:15 PM 55.4 °F - 24.8 °F 31% 30.08 in 10.0 mi North 6.9 mph - N/A   Clear
7:35 PM 53.6 °F - 24.8 °F 33% 30.09 in 10.0 mi North 4.6 mph - N/A   Clear
7:55 PM 51.8 °F - 24.8 °F 35% 30.09 in 10.0 mi North 4.6 mph - N/A   Clear
8:15 PM 48.2 °F - 26.6 °F 43% 30.09 in 10.0 mi North 4.6 mph - N/A   Clear
8:35 PM 48.2 °F - 24.8 °F 40% 30.10 in 10.0 mi North 5.8 mph - N/A   Clear
8:55 PM 48.2 °F - 24.8 °F 40% 30.10 in 10.0 mi North 3.5 mph - N/A   Clear
9:15 PM 46.4 °F 44.3 °F 24.8 °F 43% 30.11 in 10.0 mi North 4.6 mph - N/A   Clear
9:35 PM 46.4 °F - 24.8 °F 43% 30.11 in 10.0 mi Calm Calm - N/A   Clear
9:55 PM 42.8 °F - 24.8 °F 49% 30.11 in 10.0 mi Calm Calm - N/A   Clear
10:15 PM 42.8 °F - 26.6 °F 53% 30.12 in 10.0 mi Calm Calm - N/A   Clear
10:35 PM 42.8 °F - 26.6 °F 53% 30.12 in 10.0 mi Calm Calm - N/A   Clear
10:55 PM 39.2 °F - 24.8 °F 56% 30.12 in 10.0 mi Calm Calm - N/A   Clear
11:15 PM 39.2 °F - 24.8 °F 56% 30.12 in 10.0 mi Calm Calm - N/A   Clear
11:35 PM 37.4 °F 34.9 °F 24.8 °F 60% 30.13 in 10.0 mi West 3.5 mph - N/A   Clear
11:55 PM 39.2 °F - 26.6 °F 61% 30.12 in 10.0 mi Calm Calm - N/A   Clear